Theta_e
312 313 314 314 314 314 314 314 314 314 312 309 308 307 308 308 307 307 308 308 309 310 310 310 309 310 310 310 310 311 311 310 311 311 312 314 314 315 315 316 319 320 319 316 318 322 329 334 336 338 342 343 341 342 348 352 351 352 358 359 356 358 359 359 360 358 357 357 356 352 346 348 349 346 344 345 345 345 345 345 346 346 346 347 347 348 347 348
313 313 314 314 314 314 314 314 314 314 311 308 307 307 307 307 308 307 307 308 309 310 310 310 310 310 310 310 311 311 311 311 312 313 314 314 314 314 316 317 317 318 317 316 317 323 329 331 333 338 340 339 338 343 349 350 351 353 358 358 356 357 356 355 355 356 358 357 355 352 347 348 350 345 343 345 344 343 345 345 346 347 347 347 347 347 347 347
313 314 314 314 314 314 314 314 314 313 311 309 307 306 307 307 307 307 307 308 308 310 310 310 310 310 310 310 311 311 312 317 319 320 318 315 314 314 316 318 317 318 317 316 316 320 327 329 332 335 336 335 338 348 351 351 353 353 356 361 358 353 353 352 352 355 357 356 355 352 350 350 347 343 343 344 343 344 345 346 346 347 348 348 347 348 348 348
313 314 314 314 314 314 314 314 313 312 311 309 307 307 307 307 307 307 307 308 308 309 309 310 310 309 310 309 311 311 313 324 327 323 321 317 315 314 315 317 317 317 317 316 316 317 324 330 332 332 331 331 336 349 352 351 354 354 356 362 358 352 355 354 351 354 355 356 354 351 353 352 348 344 342 341 343 345 344 346 346 347 348 348 348 348 347 347
313 314 314 314 314 314 313 313 313 313 310 308 307 307 307 307 307 307 307 307 308 309 309 310 310 310 310 310 311 311 315 327 329 321 323 322 317 315 314 316 316 316 316 317 316 317 324 330 330 328 326 327 339 351 351 350 353 354 355 356 354 352 356 355 351 353 354 355 353 351 353 353 350 346 341 341 344 344 344 346 347 346 348 348 348 348 347 347
313 314 314 314 313 313 313 313 314 314 312 310 308 307 307 307 307 307 307 308 308 309 309 310 310 310 310 310 310 311 315 327 329 322 324 325 322 318 315 314 314 315 316 317 316 317 324 328 328 326 324 329 345 353 352 351 352 357 356 352 351 351 354 353 351 352 354 354 351 351 352 351 350 347 342 340 342 343 344 346 346 347 347 347 348 348 348 347
313 314 314 314 313 312 313 314 315 315 315 313 310 308 307 307 307 307 307 308 308 309 310 309 310 310 309 310 311 312 313 320 327 325 326 327 325 321 317 314 313 314 315 317 317 318 322 325 326 324 327 339 349 353 355 352 352 357 356 350 350 351 352 352 351 353 354 353 351 351 350 348 350 349 343 340 340 342 344 346 347 347 347 347 348 347 347 347
313 314 314 314 313 312 313 315 316 316 316 315 313 311 309 308 307 307 308 308 308 309 309 309 310 309 309 310 310 313 317 322 327 326 327 327 325 322 319 315 313 314 316 317 318 321 322 323 325 326 333 346 352 354 354 353 354 355 353 350 349 351 352 351 352 352 352 352 350 349 348 347 349 349 343 340 341 343 344 346 347 346 347 347 347 347 346 346
313 314 314 314 312 312 314 315 316 316 316 316 315 313 312 311 310 309 309 309 310 310 310 309 309 309 309 309 310 319 326 329 328 327 326 326 325 322 319 315 313 314 316 318 319 322 324 325 328 331 333 337 348 354 352 357 360 354 351 349 350 352 352 352 351 352 351 350 349 351 351 348 348 347 343 341 342 344 344 346 347 346 346 347 347 346 346 347
314 314 314 314 312 312 314 315 316 316 316 316 316 314 314 314 313 313 313 313 313 313 312 311 310 309 310 309 312 323 331 330 327 325 325 325 325 323 318 316 313 314 317 317 320 324 328 331 332 331 331 335 349 354 353 357 358 352 350 349 350 353 351 351 351 350 350 349 348 353 355 349 346 347 345 343 343 344 345 346 346 345 346 347 347 347 347 347
314 314 314 313 312 312 314 315 316 316 316 316 316 316 315 315 314 315 315 315 315 315 313 312 312 312 312 311 311 319 328 328 324 322 324 324 324 322 318 316 313 314 317 317 323 330 332 333 331 329 333 345 355 355 354 354 353 351 351 350 349 352 350 349 351 350 351 351 347 350 355 350 348 348 344 342 343 344 345 345 345 344 346 347 347 347 347 346
314 314 314 313 311 312 313 315 315 316 316 316 317 317 317 317 317 317 316 314 315 315 314 313 313 314 314 312 311 317 324 324 322 322 324 323 322 319 317 316 313 314 316 318 326 333 334 330 329 328 330 346 357 356 355 352 351 351 351 351 350 352 353 351 351 351 352 352 346 348 353 352 355 350 342 342 343 344 344 345 345 344 345 346 346 346 346 346
314 314 313 312 311 311 314 314 315 315 315 316 317 317 318 318 318 319 317 314 313 314 314 312 313 315 315 315 316 320 322 321 321 324 325 324 321 318 315 314 313 315 316 319 329 335 331 328 328 325 326 345 356 356 355 353 352 352 350 352 353 355 354 351 351 351 352 350 345 349 353 354 359 350 341 343 343 343 344 343 344 344 345 345 345 345 345 346
314 314 313 312 311 312 314 314 315 315 315 316 316 317 318 319 320 321 319 315 314 315 315 313 314 315 316 318 320 321 322 321 321 322 323 324 323 318 314 312 313 317 317 318 329 332 328 326 325 322 329 348 355 354 355 354 354 355 354 355 357 357 354 351 352 352 354 351 348 354 357 357 360 350 341 343 343 343 343 343 344 344 345 345 345 345 345 346
314 313 313 312 311 313 313 314 315 315 316 316 317 318 319 321 323 322 319 316 316 316 316 317 317 315 316 319 321 322 321 321 321 320 322 324 323 319 315 315 316 318 318 320 327 328 326 324 320 326 342 352 354 355 356 356 357 357 354 355 357 356 354 354 353 352 355 354 351 356 358 355 356 350 342 342 343 343 343 342 344 344 344 344 344 345 345 346
314 313 313 312 312 313 313 314 315 315 316 317 319 320 321 323 323 321 319 318 318 317 318 322 321 317 320 324 322 321 321 322 321 319 321 323 322 321 319 319 321 321 321 323 325 325 324 321 323 338 353 355 353 356 358 357 356 356 355 354 355 355 355 356 353 350 354 356 353 356 359 355 353 349 343 342 342 342 342 342 343 343 343 344 344 344 345 344
313 313 313 312 313 314 314 315 316 317 318 319 321 322 321 322 323 322 320 321 320 320 322 325 322 319 323 325 322 321 321 322 321 318 321 322 321 321 321 321 322 322 322 323 323 323 322 325 337 349 353 353 352 353 355 353 351 353 357 357 355 354 355 356 355 352 354 358 356 357 360 358 355 350 343 342 342 341 342 342 342 342 343 343 343 344 344 343
313 313 314 314 314 315 315 316 318 320 321 321 322 321 321 321 324 325 322 321 321 322 324 324 323 322 322 321 321 322 322 322 322 320 321 321 321 321 321 321 321 322 322 322 323 323 323 324 335 348 352 352 353 352 352 351 350 352 356 356 354 354 355 354 356 356 355 359 359 358 359 358 357 353 345 342 342 341 341 341 342 341 341 342 343 343 344 343
313 314 314 315 316 316 317 318 320 321 322 322 321 321 321 320 321 323 321 321 322 323 325 324 322 323 322 320 320 321 322 323 322 321 322 322 322 320 321 320 320 321 321 324 325 322 324 323 330 347 357 355 352 351 351 350 350 352 354 355 353 354 356 355 356 356 355 359 360 358 358 357 356 355 351 346 343 342 341 341 341 340 341 341 342 343 342 343
313 314 314 316 317 318 319 320 321 322 322 321 321 321 321 320 322 323 321 322 322 322 323 322 322 323 322 321 320 321 321 322 323 322 322 321 321 320 320 320 320 321 322 325 326 321 322 325 328 340 350 353 352 350 348 347 349 351 353 355 354 354 357 358 358 356 354 359 360 358 358 356 355 356 352 349 346 344 341 340 340 339 340 341 341 342 342 343
313 314 315 317 319 320 321 321 321 322 322 321 321 322 321 321 323 324 322 322 322 322 323 323 323 322 322 321 320 320 320 322 323 323 322 321 322 321 320 320 320 322 322 321 322 322 321 323 324 327 334 344 346 345 346 347 350 352 354 355 353 354 357 358 359 356 354 360 360 357 358 355 354 355 351 349 350 347 342 339 339 339 339 341 341 341 342 343
313 314 316 318 321 321 320 319 320 322 322 322 322 323 322 322 322 323 322 322 322 322 323 323 323 322 321 320 320 319 319 321 321 322 322 321 321 322 320 320 321 322 322 320 321 324 322 322 323 321 322 328 330 332 337 341 348 352 353 354 354 355 356 356 357 353 352 359 359 354 356 357 356 355 352 350 351 350 346 342 339 339 340 340 341 341 341 342
313 314 316 318 320 320 319 319 321 322 322 323 323 323 323 323 323 322 322 322 323 323 323 323 322 321 320 319 320 319 318 320 320 321 323 322 322 322 319 319 321 321 320 321 322 322 321 322 322 319 319 322 323 325 325 332 346 353 354 353 353 355 354 354 353 348 348 354 356 354 356 359 358 357 354 352 351 350 349 347 343 339 340 341 340 341 341 341
313 314 315 318 318 319 319 320 321 322 322 323 323 324 323 323 324 323 322 322 323 324 322 321 321 320 320 318 318 320 320 320 321 322 322 323 322 322 320 318 319 319 319 321 322 321 320 322 321 318 319 320 322 323 320 332 349 352 352 353 354 355 355 355 352 347 348 350 351 354 355 357 358 357 357 354 351 351 350 350 349 343 340 341 341 341 341 341
313 314 316 318 318 319 320 320 321 321 322 322 323 324 323 323 324 322 322 325 328 328 321 317 319 318 318 318 318 319 320 319 320 322 322 323 322 321 321 319 317 319 319 319 320 321 320 319 319 319 320 319 320 321 320 335 350 349 349 352 354 355 357 357 352 349 352 350 350 352 351 353 356 357 357 357 355 354 352 350 351 347 343 342 341 340 340 341
313 315 318 318 318 319 319 320 321 320 322 322 322 324 323 323 324 322 326 329 329 327 319 316 318 318 317 319 319 319 321 322 321 322 321 322 323 321 321 320 318 319 320 318 318 320 320 320 319 320 320 319 319 319 320 333 346 346 348 351 352 355 356 356 353 351 352 351 350 350 351 351 353 356 356 356 356 355 354 353 351 349 346 345 343 341 340 340
313 315 318 319 318 318 318 320 319 319 321 320 320 323 322 324 324 322 328 329 324 319 317 317 318 318 318 319 319 321 323 324 322 323 322 322 323 322 322 324 320 319 320 318 317 318 319 319 320 320 319 319 319 317 319 331 342 345 346 350 354 356 357 354 353 353 352 352 351 351 353 352 350 355 355 354 355 355 355 355 353 350 349 347 345 343 341 340
313 314 317 319 318 318 319 318 318 319 318 318 319 322 323 325 324 324 328 323 318 316 318 318 318 318 319 319 319 321 324 323 323 324 323 323 323 321 322 323 322 321 321 320 319 319 319 319 321 321 319 318 318 317 321 329 337 342 346 351 354 354 355 354 353 354 352 351 352 351 352 351 351 357 357 355 355 354 355 354 353 351 350 349 347 346 343 340
313 313 316 318 318 318 318 317 318 319 319 321 321 324 327 324 323 328 330 321 315 317 319 318 319 318 318 319 318 320 321 321 322 324 324 323 322 321 321 321 320 321 320 319 322 322 320 321 320 319 320 320 319 319 322 327 334 343 349 352 352 351 353 352 352 352 348 347 350 351 350 350 353 357 356 356 355 353 353 352 351 351 350 350 348 347 345 341
313 313 314 317 318 317 317 318 319 321 323 323 324 327 326 324 330 332 324 318 315 318 319 318 319 318 318 320 320 320 319 320 322 322 322 322 321 321 321 320 319 322 324 322 322 323 321 321 322 321 320 320 322 320 321 331 342 348 351 350 350 350 351 353 352 347 342 344 348 349 350 349 351 355 353 354 355 352 350 349 348 349 350 351 349 348 346 342
313 313 313 316 318 317 318 318 320 323 324 323 325 326 323 328 341 334 318 314 317 317 318 319 320 319 320 320 321 321 320 321 322 322 321 320 320 320 319 322 323 325 332 329 323 323 322 321 324 325 322 322 325 323 327 342 348 349 350 348 348 349 348 350 350 344 340 344 347 347 350 350 350 354 354 352 351 348 347 346 346 348 349 350 350 349 347 343
313 313 313 316 317 317 318 318 320 323 323 325 324 324 329 331 330 326 321 318 318 317 318 319 320 321 320 320 320 322 321 322 322 321 322 320 321 322 320 326 328 324 327 328 322 323 325 324 325 326 325 327 327 328 335 343 345 348 348 345 347 347 347 349 347 345 344 343 346 348 350 350 349 351 352 350 349 347 346 344 344 347 348 349 350 349 348 346
313 313 313 316 317 317 317 317 321 323 325 328 322 325 341 333 318 320 324 319 316 317 318 319 320 322 321 320 321 321 321 323 322 321 322 320 321 324 322 324 326 322 323 324 320 321 325 325 326 326 326 326 327 332 334 335 340 349 347 343 348 346 344 346 343 343 346 344 347 350 348 349 348 348 351 351 348 348 347 344 344 346 347 348 349 348 348 348
313 313 313 315 317 317 318 319 323 326 327 326 323 330 335 324 320 325 322 317 318 318 317 318 319 320 319 321 323 322 321 322 321 321 323 322 320 324 326 323 322 322 322 323 322 321 319 320 326 328 325 326 330 332 331 333 339 346 345 342 346 344 342 344 342 342 346 348 349 347 346 349 349 349 352 350 347 348 349 347 346 346 347 347 347 348 348 349
313 314 314 316 318 317 320 322 323 326 324 323 332 338 328 321 326 326 318 318 320 317 317 318 319 319 319 322 323 322 321 321 322 324 324 323 321 323 326 323 321 322 322 322 324 322 319 322 328 327 323 325 329 327 326 330 332 331 334 339 342 343 343 340 339 344 348 350 351 347 347 354 354 354 355 351 349 349 349 350 349 347 348 347 347 348 348 349
313 314 314 316 318 320 323 323 324 324 322 326 337 336 329 328 327 320 317 320 317 315 319 319 318 319 319 322 323 321 321 320 322 325 324 323 323 323 323 322 321 322 321 322 324 322 320 324 329 326 325 326 326 326 326 327 327 325 326 333 339 337 337 335 332 339 345 346 348 346 349 355 353 351 356 355 354 352 350 350 350 348 348 348 347 348 349 349
314 315 316 316 319 322 323 323 324 322 321 330 336 331 333 332 322 318 322 320 314 317 320 317 317 318 317 319 321 320 321 319 321 325 323 321 322 321 322 322 320 322 321 320 322 322 320 324 329 326 325 325 323 324 325 323 325 326 324 328 330 325 329 336 332 331 335 340 345 346 349 352 348 348 355 358 355 353 351 350 349 349 349 348 347 347 348 349
315 316 316 317 320 322 322 322 323 322 324 332 336 333 335 330 320 319 319 315 316 320 319 316 316 318 318 318 319 320 320 318 322 326 324 321 323 322 321 322 321 321 321 320 322 324 321 323 330 328 323 324 325 325 325 324 323 324 324 325 324 322 325 330 328 327 328 335 344 347 347 348 346 347 355 357 355 354 352 350 351 350 349 349 348 347 348 349
316 317 319 321 322 322 323 323 323 323 324 329 335 334 330 327 322 319 317 316 317 318 319 317 316 320 320 318 319 321 320 318 321 327 326 324 326 324 319 320 321 320 320 321 323 325 325 322 324 328 325 322 326 326 325 326 324 321 323 322 323 328 329 324 325 328 327 333 343 344 344 347 347 349 354 355 355 355 353 352 351 350 350 350 349 348 349 350
317 319 321 323 324 323 323 324 324 324 322 326 334 333 323 321 321 319 317 318 317 317 319 317 318 322 321 320 320 320 321 322 321 324 325 322 324 324 320 319 321 320 319 319 321 324 328 325 321 328 329 323 325 325 322 324 323 320 321 320 319 324 325 321 322 326 329 338 345 342 340 345 348 350 354 355 352 353 353 353 351 349 350 351 350 350 350 351
317 320 323 322 323 323 323 323 322 322 323 324 328 327 321 321 320 318 318 318 317 318 318 317 320 321 321 321 320 319 323 326 323 323 322 320 323 326 323 319 320 321 320 321 322 321 326 328 323 326 326 323 325 326 323 324 322 320 322 322 319 318 320 320 320 324 329 335 342 342 341 345 348 349 351 352 351 352 352 351 350 350 350 351 350 350 350 351
317 321 323 322 324 325 323 324 321 319 322 323 323 322 322 322 319 316 317 317 317 317 317 319 320 320 321 321 319 321 324 325 324 323 321 320 322 324 322 318 318 321 322 321 321 320 326 331 328 327 327 324 325 325 324 324 323 323 327 327 323 321 325 324 321 324 326 328 339 348 348 347 347 346 348 349 350 350 350 349 349 349 350 351 351 350 350 351
316 320 321 321 326 325 321 325 325 322 323 322 319 320 321 319 317 317 317 317 316 316 317 319 319 319 321 319 320 322 322 321 321 322 322 321 321 319 319 319 319 319 321 322 323 325 330 332 328 332 339 336 330 326 325 325 327 328 330 332 331 328 326 325 329 333 326 327 340 345 343 345 345 344 347 348 349 350 350 351 350 349 350 351 351 350 350 351
316 319 319 321 326 325 321 323 324 327 331 325 319 319 319 317 317 318 317 317 317 316 318 319 318 318 318 319 322 323 322 321 320 320 321 321 320 319 319 320 321 320 320 322 325 325 328 330 329 332 338 337 332 329 326 325 327 328 328 334 338 339 331 321 329 332 320 324 339 337 337 345 346 343 345 348 349 350 350 351 351 350 350 349 349 349 349 351
319 320 320 322 325 325 323 322 320 324 328 324 320 320 318 317 318 317 317 317 316 316 319 319 317 317 320 322 323 324 323 322 320 321 323 321 321 321 320 320 322 326 328 325 325 326 328 331 330 328 329 328 324 326 325 323 327 331 334 337 340 345 339 324 324 326 321 332 345 345 343 347 345 343 345 346 348 349 350 350 350 350 349 348 349 349 349 350
322 322 325 329 327 323 325 324 321 324 324 321 322 323 319 317 317 317 317 317 316 316 318 318 318 319 322 325 326 326 326 324 323 325 325 323 323 320 320 321 321 324 330 326 323 331 335 333 331 328 327 324 322 327 330 329 331 335 338 340 342 344 346 344 341 334 331 342 349 347 347 349 347 346 347 346 347 348 349 349 350 350 349 348 348 348 348 349
325 327 329 334 332 328 329 326 324 329 327 321 321 321 319 318 318 317 317 316 317 318 318 318 320 321 323 326 327 326 328 329 328 326 325 325 326 323 318 321 321 320 324 321 319 332 340 332 329 330 329 325 326 330 332 334 336 337 338 341 343 342 347 355 352 341 338 348 351 347 347 348 348 349 347 346 347 348 348 349 349 348 348 348 348 348 349 348
329 330 329 331 333 334 334 330 327 329 326 320 321 321 319 318 319 318 318 317 317 318 320 320 319 320 322 325 327 326 330 332 328 328 329 325 328 329 321 320 322 319 320 321 320 330 338 331 327 330 329 326 329 332 334 337 338 338 339 341 343 343 344 348 348 343 344 349 349 347 348 349 349 348 346 345 345 346 348 349 348 347 346 346 346 347 348 348
329 330 327 327 331 331 330 329 328 328 325 324 326 324 319 318 319 317 317 319 317 318 320 319 318 319 321 329 335 333 330 326 322 325 329 325 324 328 325 323 323 319 321 323 321 325 332 330 327 329 331 330 330 330 333 337 336 337 339 339 340 342 342 343 344 344 345 346 346 347 348 348 346 345 344 344 344 346 347 348 347 346 346 345 345 345 346 347
326 329 328 327 331 331 328 328 328 327 327 326 327 324 319 318 318 314 315 318 318 318 318 317 319 321 323 330 336 331 327 328 325 322 324 325 324 325 325 324 323 321 324 326 322 322 324 323 326 333 333 331 332 332 333 336 337 337 338 339 341 343 343 344 344 344 345 345 345 345 347 347 343 341 342 344 345 346 346 346 346 346 345 345 345 345 346 347
322 326 327 329 335 335 330 328 326 327 328 327 327 327 323 321 319 316 316 317 317 318 318 317 320 325 326 328 328 323 323 328 327 321 320 321 320 320 322 321 321 323 326 324 323 326 326 325 330 338 331 325 329 333 332 332 332 334 334 334 339 344 344 344 344 344 345 345 344 345 347 346 342 339 341 343 344 345 345 345 345 345 345 345 344 344 345 345
318 323 326 329 335 334 331 331 330 329 329 327 327 327 325 322 319 317 319 319 316 316 317 317 319 326 329 327 324 321 319 320 321 318 318 318 317 318 319 318 318 321 325 326 325 329 336 333 330 333 329 322 325 330 331 330 334 337 334 329 335 342 342 342 344 344 343 344 347 348 346 343 339 339 341 342 342 342 341 341 342 343 343 343 343 344 344 344
Wind_Speed
9 8 9 10 10 10 10 11 12 13 12 11 10 8 6 5 4 4 4 4 4 5 4 5 5 5 6 6 6 5 6 7 9 9 8 8 9 10 11 13 13 13 13 15 18 18 18 18 16 14 12 11 8 9 10 9 8 4 2 2 1 2 2 1 1 2 1 5 4 6 16 16 9 9 14 16 18 22 17 12 14 11 16 19 19 26 27 26
9 8 9 9 9 10 10 11 12 13 13 13 11 10 8 6 5 4 4 4 4 4 4 5 5 6 6 7 7 6 7 7 8 8 6 7 10 11 12 14 14 14 15 15 17 18 17 17 16 14 12 9 6 9 9 9 9 3 2 2 2 3 2 2 2 4 4 5 6 8 16 15 11 15 19 14 11 17 16 14 18 20 20 20 24 28 26 27
9 9 9 10 10 10 10 12 12 13 13 14 13 11 9 7 5 4 4 4 3 4 4 4 5 6 6 7 7 7 7 5 4 2 2 5 8 10 13 13 13 14 14 13 14 17 16 15 15 13 12 8 7 12 9 7 8 3 3 1 2 2 3 2 7 2 8 3 9 9 13 13 15 21 18 13 12 12 12 16 20 23 25 27 29 29 28 27
10 9 10 10 11 11 11 12 12 13 14 14 14 12 10 7 5 4 3 3 3 3 3 4 5 6 7 7 7 6 6 2 3 5 6 5 7 10 12 12 12 12 13 13 13 15 15 14 14 11 10 6 8 13 9 8 8 4 4 2 2 6 2 4 9 4 7 4 10 8 9 9 14 19 17 18 13 4 11 22 27 28 31 31 31 30 28 26
10 10 11 11 11 11 11 11 12 13 14 14 14 13 11 8 6 3 1 2 2 3 4 5 5 6 7 7 6 5 3 2 5 8 9 7 6 8 11 12 13 12 13 15 14 15 15 14 12 9 7 4 6 9 7 13 10 3 3 2 3 6 3 6 12 7 3 7 11 10 6 3 4 11 20 24 12 9 19 26 31 34 35 33 32 31 28 27
11 10 11 12 12 11 11 11 13 14 14 14 14 13 12 9 7 4 1 0 2 3 4 5 6 6 6 7 6 3 1 1 6 8 8 7 5 5 8 11 13 13 14 15 15 16 16 14 12 9 5 4 8 7 5 15 11 1 2 3 2 5 6 9 15 8 3 10 14 10 5 4 2 7 22 26 14 19 27 28 32 34 34 34 32 31 29 27
11 11 11 12 12 11 10 11 12 13 13 14 14 13 12 10 8 5 3 2 2 3 5 6 6 6 6 7 5 4 5 2 5 6 5 4 3 2 6 10 13 15 16 16 18 17 16 15 12 9 4 3 9 7 6 13 9 1 3 4 3 5 9 10 11 8 8 12 14 10 7 5 2 5 17 19 14 23 28 30 33 31 32 33 31 31 28 25
11 10 11 12 11 10 9 11 12 12 13 13 13 13 13 11 9 7 5 4 4 5 6 6 6 6 6 6 6 6 5 1 4 3 4 3 2 1 5 10 13 14 16 17 19 17 16 14 12 9 3 2 9 8 10 10 4 2 4 3 2 6 10 10 11 10 11 13 12 8 8 3 2 5 13 14 18 27 30 32 33 30 31 32 31 30 27 24
12 11 11 12 10 8 8 10 11 12 13 13 13 13 13 12 11 9 8 7 6 6 7 7 7 6 6 7 7 5 1 5 3 3 4 4 3 3 5 9 12 14 16 17 18 17 15 13 11 8 4 4 5 10 12 5 1 3 7 5 1 8 12 12 14 13 13 12 10 5 5 4 2 7 8 14 27 30 32 35 33 30 30 31 30 29 26 23
12 12 12 12 10 7 7 9 10 12 12 13 14 13 12 12 11 10 9 9 8 8 8 8 8 7 8 7 5 1 5 5 2 3 3 4 6 6 5 8 11 13 15 17 20 18 14 10 6 3 5 3 1 7 8 2 6 11 14 9 5 12 12 10 13 14 15 11 7 5 3 5 4 6 4 14 30 33 34 35 33 31 29 31 30 28 26 22
12 13 13 12 9 6 7 8 10 11 11 12 13 12 12 12 11 11 10 8 9 10 9 10 10 8 9 7 5 1 5 3 1 3 3 4 7 7 5 7 10 13 14 18 20 18 12 5 1 4 4 0 6 8 6 9 17 17 17 11 7 13 14 10 9 9 12 6 4 5 2 4 5 5 9 19 31 34 36 34 32 30 28 30 29 28 26 23
13 13 13 12 9 6 6 8 9 10 11 11 11 11 12 11 11 12 11 8 8 8 9 9 9 9 9 8 7 3 4 2 3 3 2 2 6 7 4 6 9 11 13 16 18 14 8 2 4 6 4 1 5 6 9 14 19 14 11 8 4 9 10 9 5 4 8 4 5 7 3 2 4 3 14 25 31 34 35 33 31 28 27 29 28 28 25 23
14 14 13 12 9 6 6 7 8 8 9 10 11 12 12 12 12 13 11 8 7 8 8 8 9 9 9 7 4 5 2 3 4 3 1 1 5 6 5 6 8 10 11 14 16 10 4 3 6 9 7 1 5 7 12 12 13 10 5 4 4 6 5 4 3 5 9 3 6 9 3 2 3 1 15 25 31 33 31 30 29 28 28 28 28 27 25 25
14 13 13 11 8 7 6 7 6 7 8 10 13 14 15 15 13 11 9 8 7 8 8 9 10 10 8 4 4 5 4 4 6 5 2 2 3 5 4 7 8 10 10 13 16 10 5 5 8 11 8 5 13 14 13 6 4 5 2 1 2 3 3 1 1 4 7 1 3 6 3 4 4 3 15 24 31 33 28 27 28 29 29 28 29 27 26 27
13 13 12 10 8 7 6 6 6 7 9 11 14 16 18 16 11 9 7 7 8 8 9 11 11 10 10 5 3 5 5 5 8 7 4 4 3 3 2 6 7 8 9 12 14 10 6 7 11 6 2 15 20 13 6 2 1 2 2 1 2 2 3 2 1 2 4 2 3 3 2 3 4 5 16 24 30 32 28 27 28 29 29 28 28 27 26 26
13 13 12 10 8 7 6 6 6 8 10 12 15 17 16 12 8 7 7 8 8 8 10 11 10 9 7 4 1 3 4 5 6 7 8 5 3 3 1 3 5 6 7 9 8 7 5 9 7 7 15 15 12 6 3 3 1 2 2 2 0 3 4 3 1 2 3 4 1 1 2 3 2 7 19 24 29 30 26 26 28 28 28 28 27 27 26 24
12 12 11 10 8 7 7 7 8 10 12 15 16 15 14 10 7 6 7 10 9 9 10 8 8 8 4 2 3 2 3 4 3 4 8 5 4 4 3 4 3 3 5 6 6 8 7 3 5 10 10 6 4 5 4 2 2 2 1 2 2 3 4 5 2 4 6 4 1 2 2 2 1 6 20 25 27 27 24 25 27 26 27 28 28 27 26 24
11 10 9 9 8 7 7 8 9 11 13 14 14 13 12 10 7 5 7 12 11 9 8 6 8 6 2 3 6 6 6 3 1 2 6 6 5 5 7 7 4 3 4 5 6 8 5 3 8 5 3 4 4 5 4 3 6 5 4 3 3 3 2 5 4 5 8 4 3 5 3 1 4 5 11 21 25 24 23 27 28 26 27 28 28 27 27 26
9 8 8 8 7 8 8 8 10 11 12 13 14 12 10 11 7 3 10 16 10 5 4 6 7 2 4 10 10 7 7 3 2 3 5 6 6 6 6 7 8 7 3 2 3 5 4 3 5 4 4 6 7 8 5 4 7 8 6 5 6 4 1 3 2 4 7 3 3 5 4 4 3 4 0 10 18 19 20 24 25 25 27 29 29 28 28 28
7 6 6 7 7 7 7 8 10 11 13 14 14 12 10 11 6 4 16 19 10 8 10 11 10 8 11 14 9 5 7 5 5 4 4 6 7 7 7 8 8 5 1 2 2 2 2 3 3 5 7 9 11 12 4 3 5 7 5 5 7 5 3 2 2 4 4 2 2 2 5 6 4 2 4 4 13 16 17 19 21 25 28 30 30 29 29 30
7 5 6 6 6 6 7 9 11 12 13 14 14 11 8 10 6 6 17 16 12 13 15 14 12 12 12 10 6 6 9 6 6 5 4 6 6 5 6 5 3 2 2 2 2 3 2 3 6 6 7 9 10 9 3 2 5 7 5 5 5 4 3 3 3 4 1 2 2 1 4 7 5 4 5 6 7 11 14 18 21 24 28 31 32 31 31 31
6 5 6 6 6 7 9 10 11 11 12 13 15 13 11 11 7 8 10 11 14 13 13 14 11 11 10 7 7 7 9 6 6 6 6 6 6 5 5 4 3 2 2 1 1 5 2 5 8 8 7 7 7 6 4 4 4 5 4 5 4 4 4 4 5 5 5 1 3 1 3 5 2 3 6 7 3 5 10 17 22 24 26 29 32 32 32 30
6 5 6 6 6 8 9 9 9 9 10 11 14 14 13 12 8 8 7 8 12 11 10 10 10 10 8 5 5 6 7 6 4 5 7 8 7 5 5 4 3 1 1 2 3 1 3 6 7 7 6 6 6 6 6 5 4 5 5 5 4 6 5 2 4 5 4 1 3 2 2 1 2 2 5 7 4 3 6 11 17 22 24 28 32 33 34 32
6 5 6 6 6 8 8 8 7 7 7 8 10 11 10 11 8 8 8 5 7 7 6 5 7 10 9 6 5 6 7 6 4 3 7 9 7 5 5 5 3 0 2 3 6 4 7 9 3 2 6 6 6 6 5 5 3 5 7 6 6 9 5 5 8 6 3 2 2 5 1 2 3 3 5 5 4 5 7 8 12 19 22 25 28 29 32 34
6 5 6 6 6 8 8 7 7 8 5 4 7 9 9 11 10 9 7 2 3 5 4 2 4 6 7 7 6 6 4 6 7 6 7 9 9 6 2 4 4 2 5 4 4 4 10 12 5 1 5 6 5 6 6 6 4 4 7 8 10 12 8 12 14 9 3 1 3 6 2 3 4 5 7 4 3 5 7 9 11 17 20 21 24 26 28 32
6 5 7 6 6 7 8 6 7 9 5 4 8 10 10 11 10 9 5 3 2 5 3 1 2 3 5 5 6 4 1 3 6 8 9 9 10 7 2 3 3 3 5 3 2 3 6 7 6 5 6 7 6 6 5 6 6 3 7 8 8 11 12 16 17 9 3 3 5 6 4 1 2 6 10 7 6 8 6 8 12 16 20 21 23 27 27 29
7 6 7 7 6 7 7 6 8 10 8 8 12 12 10 9 8 8 4 4 3 4 3 2 2 3 4 5 7 5 1 2 4 7 10 9 10 10 4 2 1 3 4 2 1 3 3 3 6 7 6 6 6 6 6 8 7 4 6 11 11 12 15 17 15 6 1 3 4 6 3 1 2 7 10 10 9 10 9 9 11 16 20 21 22 25 27 29
8 6 7 8 7 6 7 7 9 10 9 12 14 12 9 7 7 5 3 4 3 3 3 3 2 3 4 5 9 8 2 2 2 3 10 10 9 8 4 4 4 5 4 3 3 5 2 2 6 8 6 5 6 7 7 11 7 4 5 12 11 11 12 11 8 4 1 3 4 8 4 1 3 4 5 8 10 12 14 13 12 16 21 23 23 24 26 29
9 7 7 9 8 7 7 7 8 9 10 14 13 11 10 7 4 1 5 2 2 3 3 2 3 4 4 3 7 8 5 3 1 3 7 9 10 7 2 6 6 5 5 5 5 6 5 8 8 5 5 6 8 7 9 10 5 3 12 13 10 10 10 6 3 3 2 2 4 10 8 3 3 2 4 6 8 14 15 13 14 19 24 26 25 24 24 28
10 8 8 9 9 8 6 4 6 9 12 13 13 13 11 4 1 4 3 1 0 3 3 3 4 2 1 1 3 5 3 4 4 3 5 6 10 9 4 5 3 1 3 2 5 7 10 14 9 4 7 9 8 5 8 11 10 14 15 13 11 8 5 4 3 3 1 3 5 11 12 4 2 3 6 8 13 17 16 12 14 20 23 26 28 26 25 28
11 9 8 8 8 8 6 4 6 10 13 14 16 15 7 1 3 5 1 1 1 3 3 3 4 0 2 1 2 3 1 3 2 4 4 1 3 4 2 2 0 2 4 3 3 6 7 8 5 6 11 9 4 2 7 15 16 13 9 8 9 5 4 5 4 3 2 4 4 8 12 6 2 4 6 12 16 16 16 15 15 20 24 26 28 28 25 28
11 11 9 9 8 8 6 5 8 12 13 15 19 13 2 2 3 2 2 3 1 3 3 3 3 1 2 1 2 3 1 2 2 5 4 1 2 2 2 3 1 2 3 2 2 5 5 4 3 4 6 5 6 5 6 8 8 9 8 7 7 3 3 2 1 3 4 4 4 4 10 6 5 6 8 13 15 13 15 17 17 22 27 28 29 30 27 27
11 11 9 9 8 6 6 6 8 11 13 16 18 9 4 5 2 1 2 2 2 3 2 3 4 2 3 1 3 4 2 2 3 2 2 2 1 2 3 4 4 3 1 3 2 4 3 5 5 4 3 3 6 7 5 2 3 8 9 6 5 4 2 1 2 2 3 4 3 5 9 3 5 5 7 12 17 19 20 21 22 26 30 31 30 31 30 26
10 11 10 10 7 5 6 6 7 10 12 16 14 5 6 4 2 2 2 3 4 3 3 3 4 1 4 3 4 3 2 2 3 3 2 2 3 2 4 3 2 4 1 1 1 0 0 3 4 2 3 0 4 6 8 7 6 6 6 6 6 6 4 4 4 3 3 1 2 5 5 3 2 3 5 7 14 20 22 21 23 27 31 33 31 31 30 27
10 10 10 9 6 4 5 5 6 9 12 14 10 5 4 1 3 2 2 4 3 3 5 3 2 3 2 2 4 2 3 2 1 4 3 2 2 2 1 3 1 3 2 1 2 1 1 4 6 6 5 1 2 4 7 10 6 2 2 5 4 6 5 3 4 5 4 2 2 3 3 4 4 4 3 0 4 11 17 18 20 24 29 31 30 30 30 29
9 10 10 9 5 4 4 5 7 10 11 9 6 3 0 3 3 2 2 3 2 3 5 5 5 5 4 3 4 3 1 1 1 3 3 1 1 1 2 2 1 2 2 1 2 1 2 4 6 6 5 2 4 5 5 8 4 1 2 3 4 5 7 4 1 1 4 2 1 2 3 4 2 4 4 4 3 5 10 14 17 22 27 29 30 31 31 30
7 9 9 7 5 4 5 6 7 10 9 6 5 0 3 3 4 4 2 4 4 2 3 4 3 2 2 3 3 5 3 2 1 3 2 1 1 4 4 3 4 5 1 2 2 1 0 3 6 4 4 5 2 3 3 5 6 5 4 5 2 2 4 4 2 2 3 1 3 2 4 4 2 2 4 5 3 3 6 8 12 18 23 26 28 31 32 31
6 7 7 6 5 5 6 7 8 9 5 5 2 2 2 3 4 4 7 7 2 2 5 2 2 1 1 2 2 4 3 1 2 2 2 2 2 2 3 3 5 8 5 2 1 1 2 1 6 2 2 7 4 5 4 3 3 5 5 4 3 2 0 0 2 2 2 1 3 3 3 3 1 2 6 6 2 3 4 6 8 12 18 23 25 28 30 29
6 5 3 0 1 3 5 7 8 5 3 3 1 2 2 3 8 10 11 7 1 4 3 0 1 1 2 2 1 3 3 2 1 2 2 2 1 2 2 1 3 7 9 7 3 2 2 2 4 6 4 5 4 5 2 4 4 3 3 1 1 3 3 1 2 3 3 2 2 3 3 2 1 4 7 8 7 3 6 6 7 11 17 21 24 25 27 28
7 4 0 4 4 6 6 6 5 2 2 0 2 3 2 3 8 10 8 6 3 2 2 1 1 2 2 2 1 1 2 2 1 3 2 1 1 3 4 1 2 5 5 7 5 2 2 3 1 7 7 3 1 2 1 3 3 1 2 0 1 1 2 1 0 1 4 3 2 1 1 3 3 4 7 9 9 5 8 7 6 11 17 21 24 26 27 27
6 3 2 4 8 10 6 3 2 2 1 2 3 3 3 2 5 7 6 9 4 2 2 1 1 1 1 2 3 2 2 3 3 3 2 1 3 1 3 2 3 3 3 5 5 3 2 2 1 4 5 3 2 4 2 2 3 3 2 2 3 3 3 2 1 2 2 4 4 4 2 3 4 4 6 7 7 4 4 7 8 12 17 20 23 26 25 24
4 1 2 4 10 10 3 1 1 2 2 3 3 4 5 3 3 5 5 9 6 3 4 2 1 1 2 1 2 3 2 3 3 3 2 0 2 2 4 6 4 1 4 2 3 3 1 3 2 3 2 2 5 5 6 4 2 4 2 2 1 3 5 5 2 3 0 2 2 3 2 1 4 6 7 7 8 9 8 3 5 9 14 18 20 22 22 21
6 6 3 3 9 6 1 1 4 2 2 5 6 7 7 4 2 3 4 5 3 2 4 3 1 2 3 1 1 3 3 2 2 2 1 0 1 2 6 8 5 3 5 2 3 4 3 3 3 4 4 5 5 5 5 4 4 3 2 4 2 0 2 5 4 3 2 2 1 2 1 1 4 8 9 10 12 16 18 14 7 4 5 9 13 15 17 18
9 9 6 4 7 5 2 1 2 2 4 5 6 7 6 3 2 1 2 1 1 1 2 1 2 2 2 1 3 2 1 2 1 2 2 2 1 6 10 13 9 4 3 1 1 2 3 2 3 3 4 6 7 6 5 6 5 3 3 5 4 3 0 3 2 2 2 1 1 4 1 3 3 7 9 12 14 15 19 19 17 14 11 7 7 7 8 9
8 6 6 6 5 3 4 3 2 2 3 4 5 5 3 1 1 2 2 1 1 2 3 1 1 1 2 3 3 3 3 4 1 2 4 2 2 6 11 15 12 6 4 1 5 5 3 1 2 4 3 3 3 3 4 4 4 3 4 6 6 5 3 3 2 3 2 1 3 4 2 2 3 7 9 11 11 12 15 19 21 21 18 14 11 9 9 7
5 2 5 7 4 3 4 4 4 2 1 2 4 3 1 1 1 3 4 2 3 4 4 2 1 2 4 5 4 5 5 3 1 2 2 2 3 4 7 14 15 12 9 6 6 5 4 3 3 4 5 2 2 5 5 3 1 2 5 7 7 6 4 3 3 3 4 2 3 2 1 2 6 9 9 9 10 10 11 14 18 20 21 18 13 8 8 6
3 1 2 5 5 5 5 7 10 8 2 2 3 2 0 1 2 3 3 1 4 6 4 4 5 3 2 3 3 2 5 4 4 3 1 2 2 4 5 11 15 14 11 9 7 5 5 3 3 4 5 3 2 4 5 3 4 3 4 7 8 7 8 8 5 1 4 4 3 1 3 6 6 8 8 8 8 8 9 12 14 16 20 21 17 11 5 3
3 1 1 2 2 1 2 7 12 11 6 3 2 2 1 0 1 1 0 1 4 6 4 3 6 4 3 2 3 1 3 4 5 3 2 2 2 4 6 6 10 13 9 7 7 5 6 2 2 2 7 8 7 8 8 6 6 6 6 7 8 11 12 10 6 3 5 6 5 5 8 8 6 7 7 7 7 7 9 12 13 14 17 20 21 17 11 4
3 3 3 2 2 3 3 9 12 9 7 5 1 0 1 2 3 3 2 3 4 4 3 3 4 5 5 3 4 3 1 2 3 3 2 2 3 2 3 3 5 10 9 5 5 3 5 2 2 4 6 7 8 8 8 8 7 8 9 8 7 10 12 10 9 10 12 11 9 10 11 9 6 6 5 5 6 8 12 15 15 15 15 17 18 16 8 4
4 3 5 6 5 5 4 7 8 6 5 4 3 3 3 2 4 3 2 4 1 3 3 4 3 4 5 3 5 4 2 6 4 1 2 0 2 0 1 1 1 6 7 3 2 3 3 2 2 3 5 4 6 6 8 9 8 9 10 10 8 7 8 7 6 8 11 10 8 8 9 7 5 5 5 5 7 11 15 16 15 14 14 15 15 13 8 6
4 3 5 6 4 3 2 4 4 3 3 3 3 4 4 3 3 3 2 2 4 4 3 6 6 4 5 6 6 3 3 7 6 2 3 2 1 1 1 2 2 2 5 2 1 3 3 2 1 3 6 1 4 1 6 6 7 9 10 11 10 7 5 5 4 3 4 6 4 4 5 4 3 3 5 8 10 13 15 14 12 12 12 13 12 10 8 6
4 3 3 2 2 2 1 3 3 2 1 3 4 4 4 7 8 3 3 3 2 6 7 9 8 5 4 4 3 1 2 2 1 2 1 2 4 4 1 1 2 0 0 1 2 2 2 3 2 2 5 2 5 5 4 3 5 5 5 6 6 4 3 4 6 7 4 3 2 2 2 3 3 2 3 6 8 11 13 13 11 11 12 12 11 8 7 5
Wind_Direction
29 28 25 24 22 18 13 7 359 353 352 353 352 346 335 314 284 262 258 273 287 296 303 305 308 303 300 297 297 293 280 272 266 261 244 213 198 202 190 183 186 174 164 172 180 179 175 174 174 176 177 183 207 222 221 213 190 164 104 97 139 210 215 165 164 238 160 116 132 141 135 136 147 139 128 128 125 131 134 126 131 125 136 149 156 159 164 168
28 26 22 21 17 13 9 3 357 352 350 351 351 346 334 314 287 259 243 249 272 290 299 304 309 305 305 307 310 307 297 283 267 260 235 200 194 197 190 185 185 178 173 175 180 181 177 175 174 176 180 189 214 208 208 196 183 171 100 126 188 217 286 78 154 291 349 109 129 128 136 139 145 140 135 130 120 126 121 119 126 122 131 144 151 157 164 167
22 21 19 18 13 10 5 0 357 354 352 351 351 349 339 317 294 266 238 231 256 286 298 307 308 308 312 316 318 317 315 296 251 227 147 176 183 187 189 187 185 179 176 180 184 183 178 173 174 178 184 200 210 193 193 187 186 189 140 177 190 175 284 236 181 243 352 100 135 129 140 131 141 148 144 138 134 132 133 140 137 131 137 146 153 159 164 169
16 14 14 13 11 9 4 2 1 0 358 355 355 354 346 329 308 283 239 226 252 288 306 314 312 314 316 322 327 323 337 338 175 117 94 128 159 177 187 189 190 183 178 187 190 185 180 170 170 177 184 215 211 188 190 189 186 181 162 198 166 142 196 236 188 177 5 107 131 119 133 117 136 152 150 139 130 144 161 157 152 147 148 152 157 161 166 173
13 9 8 8 9 8 7 9 9 7 4 2 2 359 357 350 333 320 251 223 258 296 316 324 321 320 318 326 333 322 359 58 158 124 94 93 122 165 185 191 196 195 185 189 192 186 183 174 172 178 191 227 194 180 202 194 180 162 156 78 94 145 174 217 192 181 53 118 109 89 79 30 140 154 157 152 147 178 173 166 159 155 156 158 160 163 168 172
11 7 5 5 6 8 12 16 15 12 9 8 7 5 6 5 3 4 15 257 290 315 328 329 323 322 323 327 332 308 301 147 156 132 102 87 91 152 184 193 195 198 193 192 190 187 188 185 186 187 199 213 179 178 194 188 183 158 137 69 48 189 190 192 184 182 154 132 115 106 50 12 138 150 163 169 171 169 168 167 159 156 160 161 162 164 168 173
10 8 5 3 5 11 18 21 17 14 12 11 11 12 11 11 17 16 21 12 332 336 333 331 327 325 324 321 325 298 281 247 149 130 101 80 64 155 186 194 193 195 196 192 187 190 192 189 196 200 218 210 186 187 150 170 181 111 110 54 9 181 178 175 163 161 158 143 131 118 57 50 182 157 164 175 169 161 164 163 157 155 161 163 164 167 170 175
9 7 6 4 6 14 24 22 18 16 15 14 14 16 15 14 16 14 16 7 351 345 334 334 332 324 322 322 327 317 295 207 128 94 58 41 4 260 210 201 196 195 194 192 188 191 191 192 204 206 232 235 194 177 139 151 161 80 108 82 25 140 149 141 129 138 133 134 146 118 59 45 247 150 155 166 157 158 161 159 156 155 161 165 167 170 173 175
7 6 6 4 8 20 28 23 18 17 17 17 15 14 17 16 14 14 15 9 5 354 343 341 335 326 321 323 330 328 148 129 99 50 36 13 351 321 251 212 200 195 192 191 190 194 196 201 207 207 263 288 199 164 152 156 103 121 114 103 156 121 123 121 118 128 119 118 142 124 40 15 47 122 138 156 156 159 159 158 157 156 162 168 170 173 175 176
4 5 5 5 10 24 28 23 19 16 16 15 14 15 16 13 10 9 12 13 11 0 355 350 343 332 322 330 341 357 143 132 65 15 359 349 342 326 274 225 207 196 191 192 194 196 193 193 199 242 282 291 99 144 164 168 105 118 112 90 66 97 97 100 102 111 116 111 117 109 11 7 70 125 133 157 156 157 156 158 160 159 163 169 173 176 177 179
3 4 3 4 9 24 27 21 18 14 11 11 13 15 12 8 4 0 1 6 6 2 359 353 346 334 327 323 297 224 150 157 347 330 311 331 336 324 279 231 210 194 192 198 197 195 187 185 313 341 308 124 78 84 105 118 117 119 114 88 55 90 84 76 89 102 110 105 115 108 30 19 54 119 147 155 155 156 156 158 163 164 165 169 174 177 180 183
4 3 2 4 9 19 23 17 16 11 5 3 4 4 2 0 354 347 344 345 351 352 352 351 345 336 332 306 261 196 142 201 276 285 249 322 334 323 274 227 210 193 195 202 195 191 191 226 314 316 318 116 110 89 104 121 120 115 109 93 75 95 72 52 56 83 94 95 146 118 58 44 31 103 149 153 155 157 156 159 166 168 169 172 178 181 186 190
3 2 2 4 7 12 15 14 13 5 356 352 349 349 350 348 340 336 334 332 337 338 341 342 336 336 329 300 218 173 190 227 239 253 193 330 332 322 264 209 196 190 199 204 190 186 212 274 299 297 307 97 129 130 131 125 114 106 87 98 115 99 59 30 47 92 89 87 145 118 102 220 317 123 152 156 157 157 156 161 167 170 174 178 183 188 193 193
1 1 1 4 7 6 8 10 6 356 348 344 341 341 342 343 337 330 325 323 328 326 330 331 332 338 320 291 164 189 237 225 244 268 273 277 309 317 258 189 182 191 201 200 190 199 232 265 292 301 301 146 130 125 129 121 106 115 82 57 89 98 115 142 196 113 93 158 180 112 144 218 281 187 160 163 161 158 159 164 169 173 178 183 188 194 196 194
360 359 1 6 6 6 7 6 359 349 345 343 342 342 344 346 340 332 326 326 328 320 325 324 325 333 315 293 179 219 246 237 256 267 265 275 283 296 244 172 175 184 194 191 192 209 226 279 290 288 133 134 132 126 122 92 63 83 96 97 359 74 127 128 300 40 87 181 201 97 133 201 269 200 168 169 165 162 163 168 173 177 181 187 192 196 198 196
359 358 2 6 9 13 12 7 359 352 352 350 348 347 349 353 343 337 343 340 334 325 327 322 324 332 314 304 287 248 260 266 275 252 238 246 231 237 147 162 180 175 190 191 199 229 259 301 287 151 131 132 133 128 90 71 44 346 97 146 73 106 131 133 9 332 119 133 154 98 139 177 259 184 170 172 170 167 167 171 177 181 184 189 193 197 199 196
2 359 3 9 15 19 16 12 3 0 1 358 356 355 356 359 340 326 346 350 344 337 335 336 339 329 300 345 18 337 296 303 319 230 213 205 200 218 251 253 217 194 228 232 247 264 279 281 160 136 129 137 140 127 100 63 249 290 76 110 137 138 139 142 171 238 174 145 156 121 127 183 29 145 170 177 176 173 174 178 181 183 186 190 194 197 199 194
3 2 5 10 19 19 15 11 6 7 7 2 3 2 360 0 342 311 335 346 344 343 345 357 0 341 285 347 352 335 318 312 13 174 194 203 207 232 258 264 262 257 270 281 263 247 249 185 144 120 101 134 146 148 150 201 192 183 169 129 133 160 185 166 168 196 181 162 154 146 130 177 34 69 171 184 183 182 183 185 185 184 187 191 194 196 199 195
5 4 2 5 15 15 12 11 8 9 7 4 1 2 5 2 357 340 342 338 331 345 344 323 337 331 266 306 326 346 338 308 226 186 197 216 225 234 246 259 265 259 260 310 260 219 192 129 117 125 157 165 185 190 177 178 176 167 159 144 149 158 187 179 140 162 174 134 132 169 152 139 84 41 331 190 191 198 195 193 188 184 188 190 193 196 198 198
1 358 350 356 6 11 13 4 1 1 2 4 359 0 8 2 6 359 341 333 319 320 313 302 303 285 278 293 303 333 333 298 232 210 190 205 222 236 234 240 252 252 226 167 236 260 148 146 180 184 182 178 192 203 186 87 124 133 119 130 150 147 120 112 105 150 177 91 78 185 145 146 151 110 322 244 191 204 209 204 194 185 186 189 191 195 197 199
354 345 336 346 355 2 360 349 351 355 2 13 12 12 15 6 7 338 336 332 327 326 315 309 302 284 284 284 270 296 318 298 239 227 205 201 209 227 224 213 208 260 293 204 243 338 94 196 227 202 187 186 200 217 217 70 122 131 125 134 140 139 107 70 114 132 15 47 75 0 143 163 168 152 266 263 180 190 208 208 200 186 185 188 189 192 195 197
343 330 323 333 341 346 347 346 352 358 8 24 30 34 30 12 349 321 330 318 316 326 317 309 296 282 286 269 261 297 307 282 254 239 205 197 206 210 199 158 126 220 300 41 335 349 356 238 239 215 187 178 209 218 205 224 177 137 129 138 144 142 106 69 104 83 6 27 120 4 163 170 200 170 221 243 189 168 196 205 202 189 184 187 188 189 192 193
333 314 310 318 327 339 349 353 359 7 17 29 34 37 28 12 346 319 318 291 297 315 311 296 287 288 288 262 263 290 276 247 255 243 204 201 212 210 189 146 128 200 358 100 171 292 267 249 247 222 183 158 202 210 196 216 191 151 149 145 161 168 148 117 118 79 12 295 123 126 175 238 299 267 232 224 214 208 201 202 200 192 188 188 188 189 190 191
324 305 298 309 324 338 350 355 2 6 12 26 28 26 18 9 0 332 315 287 290 310 310 288 286 286 276 277 280 263 250 237 250 239 203 205 197 178 191 175 129 199 265 195 180 197 243 256 281 167 165 167 202 214 196 189 186 186 177 166 169 173 154 108 125 118 68 4 89 117 84 299 225 241 253 212 191 231 233 219 199 191 191 190 190 192 191 191
320 300 292 307 325 336 348 352 358 359 359 16 7 4 0 351 352 345 331 320 293 303 320 295 284 284 275 279 260 240 251 252 256 250 227 222 197 160 171 173 141 244 246 210 180 220 254 260 270 173 171 173 195 224 207 164 160 207 207 201 180 163 131 114 133 139 119 227 203 154 142 259 213 216 242 223 180 222 237 234 212 191 190 192 193 195 194 192
317 292 287 304 320 332 343 343 345 350 349 342 343 348 346 338 338 340 349 48 334 303 327 290 260 297 290 260 222 214 301 268 262 251 239 235 211 180 140 167 160 231 227 195 178 222 259 248 210 208 200 175 186 228 217 156 147 215 218 201 170 141 126 134 148 155 158 182 200 190 177 228 240 225 227 225 215 220 224 233 226 201 190 193 197 198 198 195
311 288 281 297 316 327 332 332 330 334 333 327 333 337 335 332 329 328 349 53 351 298 295 266 239 282 282 232 196 167 97 291 290 246 222 219 210 193 197 232 197 242 217 138 256 239 253 247 199 204 199 170 183 226 214 153 146 233 197 162 154 144 140 149 155 154 151 108 154 204 193 88 245 232 218 213 219 228 225 228 233 216 200 195 197 201 202 200
307 285 272 288 309 318 323 329 327 330 329 325 329 331 329 320 309 322 72 70 336 304 293 272 246 251 246 215 201 192 217 276 337 246 209 197 197 185 198 221 188 233 232 136 253 260 239 241 216 201 190 178 206 223 185 153 171 251 160 142 146 140 133 141 142 123 126 109 155 207 198 142 250 247 197 196 216 229 226 222 225 219 208 201 198 200 204 203
305 286 269 280 295 306 318 327 331 338 333 328 334 334 327 306 282 30 86 80 316 299 298 292 290 262 232 197 214 224 246 241 228 236 198 188 201 195 217 231 199 233 244 181 225 264 253 246 232 181 170 200 221 216 167 162 187 104 99 102 99 98 99 103 95 82 124 150 192 200 189 175 262 238 156 171 212 225 224 220 218 216 210 204 202 199 200 202
301 286 271 272 285 303 318 334 340 338 331 332 338 335 331 312 144 69 48 29 294 267 271 267 280 269 168 84 261 251 239 225 227 215 198 192 208 213 240 250 210 209 282 232 231 255 263 264 261 193 203 210 210 205 157 149 131 99 93 91 84 78 71 62 34 47 136 252 230 200 190 175 303 236 181 185 208 211 211 210 210 213 211 206 204 200 195 198
295 287 274 266 279 295 306 340 343 334 331 333 334 334 339 18 88 79 71 303 314 285 298 272 267 275 142 174 276 285 268 246 214 159 195 219 190 211 267 286 301 38 352 337 280 281 285 272 256 220 221 202 146 102 130 137 127 106 105 113 97 54 21 45 13 344 237 250 261 202 183 174 260 249 208 212 218 209 203 203 199 202 207 206 205 201 196 195
289 284 272 264 273 279 286 317 332 332 334 334 333 335 12 78 27 75 239 310 332 279 294 267 259 261 194 200 261 245 213 271 229 150 174 182 147 204 196 188 164 31 338 305 306 322 309 255 266 278 237 175 111 85 102 123 119 109 122 123 101 67 28 57 338 287 235 250 293 170 159 176 249 251 231 226 229 221 210 210 199 194 200 204 204 202 198 195
285 277 267 261 263 267 285 312 325 329 334 336 336 339 88 78 22 231 259 303 246 238 264 257 250 210 145 107 274 231 173 265 242 169 144 134 103 299 268 216 160 110 254 250 309 341 326 292 310 330 278 181 135 126 124 139 129 132 142 132 112 113 98 195 211 262 248 272 332 130 146 200 269 262 236 220 223 219 212 211 203 195 197 202 203 202 201 199
282 273 264 255 249 264 288 303 318 327 334 340 346 17 74 56 288 267 291 261 243 255 286 272 265 253 131 170 249 206 132 268 219 127 75 63 56 330 300 297 157 143 167 300 302 259 114 293 281 247 261 228 132 153 157 155 153 162 161 135 136 152 157 185 196 205 214 242 44 120 155 211 223 251 240 222 229 217 206 206 202 196 198 200 202 202 203 204
283 270 257 249 243 253 265 285 314 329 337 345 5 59 69 1 249 276 264 252 272 305 307 317 16 25 36 253 271 218 154 251 188 94 59 72 127 221 275 351 348 154 118 46 261 198 124 254 254 258 259 168 146 196 148 130 141 212 131 110 143 174 156 152 180 171 154 134 115 155 219 232 209 265 293 259 238 207 193 196 194 194 198 197 198 200 202 204
286 269 253 246 235 212 233 285 316 328 337 2 40 55 310 217 215 215 233 261 294 307 330 359 36 32 344 321 316 306 24 29 88 72 31 75 142 330 351 330 320 128 136 186 241 323 23 271 279 308 306 220 180 199 149 133 153 160 127 162 199 167 132 117 133 100 99 123 207 201 256 293 309 310 337 58 98 170 179 185 186 190 195 195 196 197 199 203
287 268 252 241 223 215 259 296 321 324 333 42 79 248 232 221 212 203 265 303 287 304 48 29 21 36 329 331 328 318 346 12 54 74 29 5 16 346 336 313 357 35 92 192 204 269 143 273 296 345 338 304 235 145 102 116 131 129 170 203 195 71 88 110 111 37 60 167 257 224 233 288 329 308 337 24 80 164 173 176 181 188 191 195 197 197 198 202
305 273 257 246 241 261 285 297 315 322 342 75 79 259 212 230 234 239 295 303 281 39 65 61 331 32 16 6 310 309 0 26 359 60 77 14 4 345 356 336 349 7 3 63 114 317 83 332 295 307 324 310 341 69 54 12 81 129 169 177 116 103 285 109 134 138 124 195 278 281 266 271 233 278 333 343 308 206 175 171 176 183 190 196 198 197 197 200
333 298 277 109 348 322 316 306 315 337 39 68 321 258 209 259 276 285 302 315 79 70 59 244 291 23 20 20 269 312 20 51 5 75 96 33 8 316 353 344 312 343 5 43 73 304 56 89 289 301 310 311 0 44 29 301 332 58 109 60 68 143 168 170 150 155 147 164 243 303 322 296 274 321 327 311 290 238 179 181 183 186 191 194 197 196 195 197
344 335 58 94 38 352 331 317 325 47 79 165 216 228 236 264 286 294 323 9 63 82 56 258 309 36 340 321 356 345 25 56 83 95 83 75 126 282 300 348 324 319 3 44 56 2 19 76 312 308 328 4 18 355 190 213 265 14 98 168 291 91 134 158 150 136 130 145 192 215 296 284 303 329 321 307 293 248 193 186 185 189 192 195 197 196 194 195
354 356 139 94 14 351 336 319 312 122 126 259 223 234 247 242 283 293 351 36 53 72 59 124 220 44 346 342 19 14 20 30 41 78 69 85 127 228 294 327 311 305 13 32 29 16 356 58 32 310 345 29 248 270 290 242 207 174 133 175 194 158 129 123 310 296 120 132 167 163 188 279 317 333 327 323 310 283 193 183 187 192 196 198 199 198 195 192
5 321 159 66 9 351 335 281 290 142 178 251 248 248 257 267 283 287 344 34 47 26 33 59 215 38 49 350 5 38 56 28 16 61 91 126 135 168 313 327 310 12 70 38 320 333 13 84 47 292 284 268 265 288 315 318 158 144 105 51 152 136 120 128 194 258 179 113 144 120 128 271 333 344 341 344 356 24 46 82 183 192 197 200 200 197 192 187
348 301 267 22 7 5 51 336 339 348 253 274 285 268 259 258 254 286 346 29 37 7 27 31 346 53 47 333 21 48 56 46 14 34 118 137 38 337 345 0 3 56 79 77 296 333 20 57 10 305 298 306 311 322 322 346 53 81 28 15 18 294 155 152 173 188 150 143 137 83 74 263 346 353 351 0 21 40 43 42 53 95 175 193 192 189 184 184
339 310 287 337 358 14 87 226 288 293 277 293 304 281 261 239 207 278 353 6 356 68 82 12 350 39 22 18 54 36 54 86 31 353 58 104 349 349 20 39 41 33 42 101 200 18 21 26 20 10 356 349 351 353 345 355 21 33 332 338 336 321 10 143 126 87 103 278 116 113 166 254 328 356 3 12 27 39 39 40 49 53 62 94 123 129 140 163
345 316 294 316 345 53 97 138 182 267 281 291 292 274 264 245 154 70 47 336 335 91 104 348 318 39 39 53 44 359 38 86 121 348 27 28 314 348 22 42 47 34 12 80 140 109 82 58 37 61 70 38 7 323 299 305 329 350 339 337 344 353 23 142 143 97 125 298 45 98 165 230 345 5 16 18 25 33 31 37 47 52 60 74 91 108 116 114
11 346 312 324 347 54 71 76 55 3 297 292 291 275 219 195 241 36 45 25 5 47 76 43 9 57 47 55 43 354 4 33 81 81 47 340 305 323 9 37 45 39 31 53 105 112 93 58 38 80 104 119 239 255 257 249 354 14 346 350 0 1 22 90 99 103 146 131 47 34 133 81 23 13 18 17 24 31 22 30 46 56 62 67 75 109 148 161
25 72 346 336 334 341 6 23 14 359 331 264 259 244 235 251 267 13 39 52 28 44 63 38 41 59 32 56 82 12 347 355 23 50 28 310 286 301 356 41 43 32 27 39 56 87 93 56 10 49 48 8 325 349 350 16 55 35 2 12 25 32 47 62 67 128 152 112 72 62 89 77 40 24 26 22 27 32 22 31 50 61 68 73 75 80 100 179
358 335 3 6 316 291 351 344 338 336 324 291 223 192 250 291 131 92 85 78 35 43 69 33 25 32 359 31 109 99 359 4 6 3 349 340 325 337 1 27 33 28 30 33 35 81 109 98 226 83 34 11 16 26 25 41 55 44 34 28 36 53 62 66 67 95 112 102 109 112 90 74 51 37 32 21 17 20 35 49 60 66 71 79 83 81 81 93
353 319 312 338 290 252 282 311 315 325 323 307 304 197 222 129 129 201 190 82 15 0 75 82 15 22 23 34 108 108 51 66 19 339 302 337 349 19 16 355 7 21 34 37 20 63 100 94 173 127 61 15 7 19 28 38 42 38 29 14 22 56 67 70 74 86 93 98 109 106 85 68 49 32 22 22 22 34 55 63 63 64 71 83 90 90 90 108
5 330 319 333 313 286 296 309 315 333 330 325 1 340 296 160 154 192 153 97 117 312 41 94 91 68 61 66 97 95 166 158 126 336 207 103 5 15 99 192 282 358 19 45 357 9 70 108 184 116 82 2 338 15 50 54 52 43 24 3 4 39 55 51 60 84 92 100 116 108 89 74 50 19 15 41 58 63 69 72 72 74 80 91 103 111 116 130
344 298 317 336 318 301 310 305 323 17 351 340 2 346 329 292 221 175 51 46 158 171 145 143 139 93 55 57 80 96 212 182 175 216 191 152 11 268 238 207 207 336 8 42 0 6 61 94 0 70 93 160 270 103 88 77 63 46 20 358 356 11 42 49 30 35 94 136 146 97 82 81 55 18 26 53 68 71 70 69 71 73 78 88 101 114 121 133
348 264 283 329 288 296 333 316 347 48 318 315 328 311 295 286 271 205 85 5 163 145 141 143 133 98 62 57 61 260 238 181 206 333 16 30 38 62 71 251 228 266 93 115 47 36 100 97 63 78 93 148 221 184 130 64 47 30 342 328 335 351 42 63 40 24 38 143 142 70 100 113 100 101 83 66 61 59 55 51 50 48 53 67 79 84 81 86